Starlink 11439

operational
NORAD ID: 62419 Int'l Des: 2024-249 Owner: SPXS Country: US Constellation: starlink
LEOCIRCULAR

About Starlink 11439

Description loading...

Live Position

Loading 3D Globe...

Upcoming Passes

Altitude History

Altitude vs Time

uPlot chart will show altitude changes over time

Two-Line Element Set

1 62419U 24249L 26034.95442323 .01391713 00000-0 44861-2 0 9990
2 62419 42.9985 10.2181 0001490 211.4189 148.6596 15.87678314 64182
Epoch: Feb 3, 2026 • Age: 15 hours

Current Status

Altitude 304.4 km
Velocity 7.73 km/s
Sub-Earth Point 21.35°N, 44.21°E
Launch Date Dec 23, 2024
Age 1.1 years
Type internet

Technical Details

Classification Payload
Mass 960.00 kg
Dry Mass 910.00 kg
Total Mass 960.00 kg
Length 0.30 m
Diameter 4.10 m
Span 29.00 m
Shape Box + pan
Manufacturer SPXS
Bus Type Starlink V2MD
Phase Status In Orbit
Owner/State SPXS/US

Large Constellations

Loading constellations...